Powrót do katalogu

STARLINK-2510

AktywnyŁącznośćVLEO
NORAD 48329·PAYLOAD·🇺🇸 United States

Wystrzelony Apr 29, 2021 z Cape Canaveral Space Force Station

Loading…

Następne Przeloty (najbliższe 24 godziny)

TLE

ŚwieżeSource: CelesTrak SupGP

Epoka: Sep 14, 2026, 14:02 UTC

1 48329C 21036BF  26257.58520833  .00053432  00000+0  17172-2 0  2577
2 48329  53.1572 301.9089 0001210  88.4519  87.6431 15.31694872    16

Śledź STARLINK-2510 w czasie rzeczywistym z AllMySat

Download on the App Store